JST455 YSSY-YMML

Flight info

Callsign JST455
Flight time 1h 13m
Altitude 36000
Route MARUB7/34R WOL H65 LEECE Q29 ML
Aircraft A320/M-SDE3FGHIRWY/LB1

Departure

Time 2026-05-04 11:25
Airport Sydney Kingsford Smith International Airport (YSSY)

Arrival

Time 2026-05-04 12:39
Airport Melbourne Airport (YMML)
Time Latitude Longitude Altitude Speed Heading
2026-05-04 10:49 -33.93511 151.18005 21 ft 0 kts 285°
2026-05-04 11:05 -33.93510 151.18072 23 ft 0 kts 194°
2026-05-04 11:06 -33.93504 151.18074 23 ft 0 kts 189°
2026-05-04 11:06 -33.93502 151.18074 23 ft 0 kts 189°
2026-05-04 11:08 -33.93597 151.18056 21 ft 13 kts 184°
2026-05-04 11:10 -33.93815 151.17888 11 ft 0 kts 254°
2026-05-04 11:12 -33.94231 151.17865 18 ft 15 kts 168°
2026-05-04 11:12 -33.94328 151.17889 21 ft 13 kts 168°
2026-05-04 11:12 -33.94413 151.17912 24 ft 12 kts 170°
2026-05-04 11:12 -33.94493 151.17886 25 ft 12 kts 198°
2026-05-04 11:13 -33.94582 151.17899 25 ft 13 kts 166°
2026-05-04 11:13 -33.94673 151.17921 26 ft 13 kts 167°
2026-05-04 11:13 -33.94764 151.17946 27 ft 13 kts 168°
2026-05-04 11:13 -33.94859 151.17970 26 ft 15 kts 167°
2026-05-04 11:16 -33.95050 151.18401 18 ft 0 kts 78°
2026-05-04 11:19 -33.95575 151.18788 10 ft 22 kts 168°
2026-05-04 11:19 -33.95729 151.18828 9 ft 22 kts 168°
2026-05-04 11:19 -33.95884 151.18869 9 ft 22 kts 168°
2026-05-04 11:19 -33.96037 151.18909 9 ft 22 kts 168°
2026-05-04 11:20 -33.96189 151.18948 9 ft 22 kts 168°
2026-05-04 11:20 -33.96339 151.18986 9 ft 21 kts 168°
2026-05-04 11:20 -33.96486 151.19025 10 ft 21 kts 168°
2026-05-04 11:20 -33.96629 151.19063 12 ft 20 kts 167°
2026-05-04 11:22 -33.97123 151.19258 12 ft 0 kts 78°
2026-05-04 11:24 -33.95594 151.18997 12 ft 154 kts 349°
2026-05-04 11:25 -33.94502 151.18730 459 ft 159 kts 349°
2026-05-04 11:25 -33.93417 151.18668 1050 ft 159 kts 21°
2026-05-04 11:25 -33.92681 151.19612 1658 ft 166 kts 68°
2026-05-04 11:26 -33.92588 151.22572 2411 ft 191 kts 86°
2026-05-04 11:27 -33.92884 151.34410 4942 ft 207 kts 86°
2026-05-04 11:28 -33.92926 151.36154 4945 ft 207 kts 85°
2026-05-04 11:28 -33.92965 151.37888 4999 ft 211 kts 86°
2026-05-04 11:28 -33.93004 151.39647 5452 ft 215 kts 86°
2026-05-04 11:28 -33.93047 151.41435 6155 ft 212 kts 85°
2026-05-04 11:29 -33.93085 151.43185 6763 ft 213 kts 85°
2026-05-04 11:29 -33.93122 151.44968 7354 ft 215 kts 85°
2026-05-04 11:29 -33.93155 151.46783 7920 ft 218 kts 85°
2026-05-04 11:29 -33.93198 151.48592 8451 ft 223 kts 90°
2026-05-04 11:31 -34.05047 151.53041 10790 ft 316 kts 228°
2026-05-04 11:33 -34.14505 151.38268 15085 ft 331 kts 236°
2026-05-04 11:33 -34.15993 151.36125 15606 ft 335 kts 236°
2026-05-04 11:33 -34.17502 151.33968 16149 ft 338 kts 236°
2026-05-04 11:34 -34.19009 151.31816 16666 ft 341 kts 236°
2026-05-04 11:34 -34.20567 151.29597 17153 ft 345 kts 236°
2026-05-04 11:34 -34.22116 151.27388 17638 ft 349 kts 236°
2026-05-04 11:34 -34.23687 151.25150 18147 ft 351 kts 236°
2026-05-04 11:35 -34.25265 151.22899 18651 ft 354 kts 236°
2026-05-04 11:35 -34.26849 151.20644 19181 ft 355 kts 237°
2026-05-04 11:35 -34.28457 151.18350 19707 ft 356 kts 237°
2026-05-04 11:35 -34.30030 151.16100 20213 ft 357 kts 237°
2026-05-04 11:36 -34.31644 151.13792 20670 ft 360 kts 237°
2026-05-04 11:36 -34.33276 151.11461 21182 ft 361 kts 237°
2026-05-04 11:36 -34.34877 151.09169 21628 ft 363 kts 237°
2026-05-04 11:36 -34.36518 151.06815 22070 ft 365 kts 237°
2026-05-04 11:37 -34.38148 151.04483 22509 ft 367 kts 237°
2026-05-04 11:37 -34.39791 151.02127 22930 ft 369 kts 237°
2026-05-04 11:37 -34.41451 150.99744 23362 ft 370 kts 237°
2026-05-04 11:37 -34.43121 150.97350 23802 ft 372 kts 237°
2026-05-04 11:38 -34.44791 150.94946 24152 ft 376 kts 237°
2026-05-04 11:38 -34.46466 150.92537 24536 ft 378 kts 237°
2026-05-04 11:38 -34.48160 150.90100 24927 ft 380 kts 238°
2026-05-04 11:38 -34.49850 150.87668 25280 ft 382 kts 238°
2026-05-04 11:39 -34.51567 150.85196 25666 ft 384 kts 238°
2026-05-04 11:39 -34.53297 150.82701 26036 ft 386 kts 238°
2026-05-04 11:40 -34.63116 150.66966 28030 ft 396 kts 242°
2026-05-04 11:41 -34.64748 150.64253 28328 ft 399 kts 242°
2026-05-04 11:41 -34.66381 150.61536 28622 ft 402 kts 242°
2026-05-04 11:41 -34.68020 150.58809 28897 ft 404 kts 242°
2026-05-04 11:41 -34.69677 150.56050 29205 ft 406 kts 242°
2026-05-04 11:42 -34.71341 150.53279 29507 ft 407 kts 242°
2026-05-04 11:42 -34.73003 150.50507 29807 ft 409 kts 242°
2026-05-04 11:42 -34.74681 150.47707 30039 ft 411 kts 242°
2026-05-04 11:42 -34.76375 150.44878 30321 ft 412 kts 242°
2026-05-04 11:43 -34.78050 150.42079 30584 ft 414 kts 242°
2026-05-04 11:43 -34.79742 150.39252 30858 ft 414 kts 242°
2026-05-04 11:43 -34.81433 150.36420 31127 ft 415 kts 242°
2026-05-04 11:43 -34.83120 150.33595 31401 ft 415 kts 242°
2026-05-04 11:44 -34.84826 150.30736 31681 ft 416 kts 242°
2026-05-04 11:44 -34.86522 150.27892 31974 ft 416 kts 242°
2026-05-04 11:44 -34.88203 150.25070 32245 ft 416 kts 242°
2026-05-04 11:44 -34.89897 150.22224 32470 ft 418 kts 242°
2026-05-04 11:45 -34.91611 150.19341 32729 ft 418 kts 242°
2026-05-04 11:45 -34.93314 150.16475 32970 ft 418 kts 242°
2026-05-04 11:45 -34.95003 150.13632 33276 ft 417 kts 242°
2026-05-04 11:45 -34.96702 150.10773 33642 ft 414 kts 243°
2026-05-04 11:46 -34.98375 150.07950 34016 ft 411 kts 243°
2026-05-04 11:46 -35.00045 150.05131 34341 ft 409 kts 243°
2026-05-04 11:46 -35.01695 150.02341 34560 ft 410 kts 243°
2026-05-04 11:46 -35.03359 149.99519 34746 ft 411 kts 243°
2026-05-04 11:47 -35.05027 149.96698 34961 ft 412 kts 243°
2026-05-04 11:47 -35.06704 149.93852 35191 ft 412 kts 243°
2026-05-04 11:47 -35.08378 149.91016 35392 ft 412 kts 243°
2026-05-04 11:47 -35.10039 149.88199 35592 ft 413 kts 243°
2026-05-04 11:48 -35.11697 149.85384 35779 ft 412 kts 243°
2026-05-04 11:48 -35.13382 149.82520 35945 ft 412 kts 243°
2026-05-04 11:48 -35.15043 149.79692 35996 ft 414 kts 243°
2026-05-04 11:49 -35.18409 149.73959 36008 ft 415 kts 243°
2026-05-04 11:49 -35.21759 149.68245 36006 ft 416 kts 243°
2026-05-04 11:50 -35.25120 149.62501 36002 ft 416 kts 243°
2026-05-04 11:50 -35.28495 149.56728 36012 ft 416 kts 243°
2026-05-04 11:51 -35.31851 149.50975 36000 ft 417 kts 243°
2026-05-04 11:51 -35.35187 149.45248 36015 ft 418 kts 243°
2026-05-04 11:52 -35.38550 149.39462 36006 ft 417 kts 243°
2026-05-04 11:52 -35.40234 149.36565 35882 ft 417 kts 243°
2026-05-04 11:52 -35.41909 149.33673 35959 ft 419 kts 244°
2026-05-04 11:53 -35.45282 149.27855 36007 ft 419 kts 244°
2026-05-04 11:53 -35.48663 149.22012 36014 ft 419 kts 244°
2026-05-04 11:55 -35.62090 148.98709 36015 ft 420 kts 244°
2026-05-04 11:56 -35.65458 148.92836 36015 ft 421 kts 244°
2026-05-04 11:56 -35.68812 148.86980 36017 ft 419 kts 244°
2026-05-04 11:57 -35.72163 148.81126 36013 ft 420 kts 244°
2026-05-04 11:57 -35.75515 148.75253 36006 ft 420 kts 244°
2026-05-04 11:58 -35.78840 148.69417 36010 ft 420 kts 244°
2026-05-04 11:58 -35.82178 148.63545 36010 ft 419 kts 244°
2026-05-04 11:59 -35.85527 148.57651 36006 ft 419 kts 244°
2026-05-04 11:59 -35.88849 148.51788 36003 ft 419 kts 245°
2026-05-04 12:00 -35.92173 148.45895 36004 ft 418 kts 245°
2026-05-04 12:00 -35.95472 148.40033 36001 ft 420 kts 245°
2026-05-04 12:01 -35.98809 148.34090 36006 ft 419 kts 245°
2026-05-04 12:02 -36.10366 148.13449 36009 ft 419 kts 246°
2026-05-04 12:03 -36.13672 148.07521 35989 ft 420 kts 245°
2026-05-04 12:03 -36.16978 148.01614 35994 ft 418 kts 245°
2026-05-04 12:04 -36.20282 147.95694 36008 ft 420 kts 245°
2026-05-04 12:04 -36.23592 147.89749 35988 ft 421 kts 245°
2026-05-04 12:05 -36.26915 147.83775 36001 ft 422 kts 245°
2026-05-04 12:05 -36.30224 147.77818 36002 ft 420 kts 245°
2026-05-04 12:06 -36.33537 147.71838 36003 ft 421 kts 245°
2026-05-04 12:06 -36.36840 147.65852 35996 ft 423 kts 245°
2026-05-04 12:07 -36.40155 147.59834 35993 ft 424 kts 245°
2026-05-04 12:07 -36.43477 147.53793 35979 ft 424 kts 245°
2026-05-04 12:08 -36.46774 147.47790 35984 ft 424 kts 245°
2026-05-04 12:08 -36.50109 147.41708 35980 ft 425 kts 245°
2026-05-04 12:09 -36.53404 147.35683 35975 ft 425 kts 245°
2026-05-04 12:09 -36.56732 147.29587 35991 ft 425 kts 246°
2026-05-04 12:10 -36.60027 147.23546 35973 ft 424 kts 246°
2026-05-04 12:10 -36.63334 147.17468 35980 ft 425 kts 246°
2026-05-04 12:11 -36.66634 147.11395 35970 ft 425 kts 246°
2026-05-04 12:11 -36.69958 147.05257 35973 ft 426 kts 245°
2026-05-04 12:12 -36.73267 146.99150 35879 ft 422 kts 245°
2026-05-04 12:12 -36.74905 146.96129 35436 ft 420 kts 246°
2026-05-04 12:12 -36.76539 146.93097 34941 ft 419 kts 246°
2026-05-04 12:13 -36.78134 146.90134 34517 ft 418 kts 246°
2026-05-04 12:14 -36.89434 146.69101 30822 ft 411 kts 247°
2026-05-04 12:15 -36.91029 146.66127 30377 ft 407 kts 247°
2026-05-04 12:15 -36.92580 146.63231 29950 ft 404 kts 247°
2026-05-04 12:15 -36.94144 146.60304 29451 ft 401 kts 247°
2026-05-04 12:15 -36.95684 146.57422 28968 ft 398 kts 247°
2026-05-04 12:16 -36.97193 146.54591 28489 ft 395 kts 247°
2026-05-04 12:16 -36.98727 146.51715 28017 ft 392 kts 247°
2026-05-04 12:16 -37.00225 146.48908 27509 ft 390 kts 247°
2026-05-04 12:16 -37.01720 146.46097 27029 ft 388 kts 247°
2026-05-04 12:17 -37.03199 146.43317 26576 ft 385 kts 247°
2026-05-04 12:17 -37.04675 146.40544 26111 ft 382 kts 247°
2026-05-04 12:17 -37.06121 146.37819 25636 ft 379 kts 247°
2026-05-04 12:17 -37.07574 146.35083 25167 ft 377 kts 247°
2026-05-04 12:18 -37.09013 146.32367 24707 ft 374 kts 247°
2026-05-04 12:18 -37.10454 146.29646 24256 ft 371 kts 248°
2026-05-04 12:18 -37.11866 146.26979 23759 ft 370 kts 248°
2026-05-04 12:18 -37.13274 146.24313 23269 ft 368 kts 248°
2026-05-04 12:19 -37.14687 146.21639 22823 ft 364 kts 247°
2026-05-04 12:19 -37.16055 146.19045 22380 ft 361 kts 247°
2026-05-04 12:19 -37.17430 146.16438 21931 ft 358 kts 246°
2026-05-04 12:19 -37.18808 146.13825 21471 ft 356 kts 246°
2026-05-04 12:20 -37.20156 146.11264 21021 ft 354 kts 246°
2026-05-04 12:20 -37.21514 146.08684 20543 ft 353 kts 246°
2026-05-04 12:20 -37.22858 146.06128 20086 ft 351 kts 245°
2026-05-04 12:20 -37.24181 146.03615 19677 ft 348 kts 245°
2026-05-04 12:21 -37.25514 146.01077 19234 ft 347 kts 245°
2026-05-04 12:21 -37.26827 145.98579 18800 ft 345 kts 244°
2026-05-04 12:21 -37.28155 145.96050 18393 ft 342 kts 244°
2026-05-04 12:21 -37.29448 145.93581 17982 ft 340 kts 244°
2026-05-04 12:22 -37.30738 145.91118 17583 ft 338 kts 244°
2026-05-04 12:22 -37.32023 145.88672 17194 ft 335 kts 243°
2026-05-04 12:22 -37.33306 145.86230 16815 ft 332 kts 243°
2026-05-04 12:22 -37.34569 145.83824 16420 ft 330 kts 243°
2026-05-04 12:23 -37.35816 145.81448 16040 ft 328 kts 243°
2026-05-04 12:23 -37.37067 145.79062 15654 ft 325 kts 243°
2026-05-04 12:23 -37.38309 145.76688 15270 ft 323 kts 243°
2026-05-04 12:23 -37.39537 145.74345 14893 ft 321 kts 243°
2026-05-04 12:24 -37.40745 145.72035 14525 ft 318 kts 243°
2026-05-04 12:24 -37.41960 145.69711 14132 ft 317 kts 242°
2026-05-04 12:24 -37.43160 145.67410 13739 ft 315 kts 242°
2026-05-04 12:24 -37.44367 145.65100 13354 ft 314 kts 242°
2026-05-04 12:25 -37.45596 145.62851 12989 ft 313 kts 239°
2026-05-04 12:25 -37.46879 145.60638 12628 ft 311 kts 239°
2026-05-04 12:25 -37.48137 145.58485 12270 ft 309 kts 239°
2026-05-04 12:25 -37.49405 145.56314 11907 ft 307 kts 239°
2026-05-04 12:26 -37.50663 145.54152 11541 ft 305 kts 239°
2026-05-04 12:26 -37.51908 145.52013 11176 ft 303 kts 239°
2026-05-04 12:26 -37.53143 145.49884 10812 ft 301 kts 239°
2026-05-04 12:26 -37.54370 145.47772 10464 ft 299 kts 239°
2026-05-04 12:27 -37.55587 145.45674 10106 ft 297 kts 239°
2026-05-04 12:27 -37.56799 145.43579 9734 ft 295 kts 239°
2026-05-04 12:27 -37.58007 145.41493 9422 ft 292 kts 239°
2026-05-04 12:27 -37.59186 145.39462 9258 ft 283 kts 240°
2026-05-04 12:28 -37.60331 145.37491 9079 ft 277 kts 240°
2026-05-04 12:28 -37.61462 145.35532 8914 ft 276 kts 240°
2026-05-04 12:28 -37.62597 145.33565 8885 ft 275 kts 241°
2026-05-04 12:28 -37.63719 145.31619 8878 ft 276 kts 241°
2026-05-04 12:29 -37.64838 145.29672 8880 ft 276 kts 241°
2026-05-04 12:29 -37.65955 145.27743 8873 ft 265 kts 241°
2026-05-04 12:29 -37.67030 145.25888 8676 ft 261 kts 241°
2026-05-04 12:29 -37.68097 145.24022 8097 ft 271 kts 241°
2026-05-04 12:30 -37.69207 145.22086 7683 ft 273 kts 241°
2026-05-04 12:30 -37.70322 145.20151 7362 ft 273 kts 242°
2026-05-04 12:30 -37.71445 145.18201 7030 ft 272 kts 241°
2026-05-04 12:30 -37.72551 145.16277 6711 ft 271 kts 242°
2026-05-04 12:31 -37.73656 145.14359 6382 ft 271 kts 242°
2026-05-04 12:31 -37.74762 145.12433 6181 ft 266 kts 242°
2026-05-04 12:31 -37.75825 145.10586 6034 ft 258 kts 242°
2026-05-04 12:31 -37.76873 145.08762 5888 ft 251 kts 242°
2026-05-04 12:32 -37.77877 145.07010 5677 ft 248 kts 243°
2026-05-04 12:32 -37.79896 145.03474 5105 ft 247 kts 243°
2026-05-04 12:32 -37.80872 145.01732 4815 ft 244 kts 248°
2026-05-04 12:33 -37.81562 144.99811 4475 ft 232 kts 263°
2026-05-04 12:33 -37.81936 144.97852 4082 ft 229 kts 266°
2026-05-04 12:33 -37.82262 144.95882 3618 ft 229 kts 266°
2026-05-04 12:33 -37.82567 144.93929 3207 ft 229 kts 269°
2026-05-04 12:34 -37.82811 144.91942 2880 ft 227 kts 269°
2026-05-04 12:34 -37.83012 144.90022 2695 ft 214 kts 279°
2026-05-04 12:34 -37.82594 144.88361 2503 ft 191 kts 314°
2026-05-04 12:34 -37.81589 144.87350 2380 ft 177 kts 331°
2026-05-04 12:35 -37.80512 144.86703 2468 ft 167 kts 339°
2026-05-04 12:35 -37.79448 144.86299 2443 ft 155 kts 345°
2026-05-04 12:35 -37.78410 144.86008 2267 ft 146 kts 347°
2026-05-04 12:35 -37.77461 144.85788 2092 ft 135 kts 348°
2026-05-04 12:36 -37.76536 144.85597 1913 ft 134 kts 349°
2026-05-04 12:36 -37.75626 144.85400 1771 ft 132 kts 349°
2026-05-04 12:36 -37.74725 144.85228 1586 ft 131 kts 351°
2026-05-04 12:36 -37.73817 144.85077 1407 ft 131 kts 352°
2026-05-04 12:37 -37.72905 144.84912 1215 ft 130 kts 351°
2026-05-04 12:37 -37.72015 144.84729 1047 ft 130 kts 352°
2026-05-04 12:37 -37.71117 144.84566 892 ft 130 kts 353°
2026-05-04 12:37 -37.70227 144.84413 708 ft 129 kts 353°
2026-05-04 12:38 -37.69339 144.84244 525 ft 126 kts 354°
2026-05-04 12:38 -37.68497 144.84085 367 ft 120 kts 354°
2026-05-04 12:38 -37.67755 144.83954 363 ft 87 kts 351°
2026-05-04 12:38 -37.67303 144.83865 376 ft 52 kts 351°
2026-05-04 12:39 -37.67049 144.83833 385 ft 28 kts
2026-05-04 12:39 -37.66906 144.83879 390 ft 15 kts 21°
2026-05-04 12:39 -37.66831 144.83917 392 ft 6 kts 21°
2026-05-04 12:39 -37.66793 144.83936 393 ft 4 kts 21°
2026-05-04 12:40 -37.66778 144.83960 393 ft 3 kts 73°
2026-05-04 12:40 -37.66820 144.83987 391 ft 15 kts 170°
2026-05-04 12:40 -37.66938 144.84012 388 ft 18 kts 171°
2026-05-04 12:40 -37.67069 144.84036 385 ft 20 kts 171°
2026-05-04 12:41 -37.67217 144.84064 380 ft 22 kts 171°
2026-05-04 12:41 -37.67376 144.84094 376 ft 23 kts 171°
2026-05-04 12:41 -37.67485 144.84123 374 ft 13 kts 144°
2026-05-04 12:41 -37.67495 144.84230 375 ft 11 kts 81°
2026-05-04 12:42 -37.67483 144.84335 377 ft 12 kts 82°
2026-05-04 12:42 -37.67478 144.84401 379 ft 3 kts 108°
2026-05-04 12:42 -37.67534 144.84424 377 ft 12 kts 167°
2026-05-04 12:42 -37.67569 144.84399 376 ft 8 kts 261°
2026-05-04 12:43 -37.67570 144.84390 375 ft 0 kts 262°